This demonstration page uses our WeatherBlox Daily Observations layout. Learn more.

40.92945, -100.16068

Hourly Observations for July 16, 2015

Temp ( °F °C ) Dew Point ( °F °C ) Humidity (%) Winds ( mph kmh ) Pressure ( in mb ) Visibility ( mi km ) Precip ( " mm )
12:15 am 00:15 Clear 74 23.1 71 21.8 92 92 E 5 7 29.77 1008 7 11.26538 N/A
12:35 am 00:35 Clear 74 23.1 72 22 94 94 ESE 9 15 29.74 1007 7 11.26538 N/A
12:55 am 00:55 Clear with Mist and Fog 73 23 71 21.8 93 93 E 8 13 29.77 1008 5 8.0467 N/A
1:15 am 01:15 Clear with Mist and Fog 73 22.6 71 21.6 94 94 ESE 5 7 29.74 1007 4 6.43736 N/A
1:35 am 01:35 Partly Cloudy with Mist and Fog 72 22.2 70 21.3 95 95 Calm 29.74 1007 3 4.82802 N/A
1:55 am 01:55 Cloudy with Mist and Fog 72 22.4 71 21.6 95 95 SE 3 6 29.8 1009 3 4.82802 N/A
2:15 am 02:15 Cloudy with Mist and Fog 73 23 72 22.1 95 95 SSE 6 9 29.74 1007 4 6.43736 N/A
2:35 am 02:35 Partly Cloudy with Mist and Fog 73 23 72 22.2 95 95 SSE 3 6 29.74 1007 4 6.43736 N/A
2:55 am 02:55 Clear with Mist and Fog 73 23 72 22.2 95 95 SSE 6 9 29.77 1008 3 4.82802 N/A
3:15 am 03:15 Mostly Cloudy with Mist and Fog 73 23 72 22.1 95 95 S 9 15 29.77 1008 5 8.0467 N/A
3:35 am 03:35 Partly Cloudy 73 22.5 70 21.1 92 92 SSW 8 13 29.74 1007 10 16.0934 N/A
3:55 am 03:55 Partly Cloudy 73 22.5 70 21 91 91 WSW 3 6 29.71 1006 10 16.0934 N/A
4:15 am 04:15 Partly Cloudy 73 22.5 70 21.2 92 92 W 7 11 29.74 1007 10 16.0934 N/A
4:35 am 04:35 Partly Cloudy 73 22.5 70 21.2 92 92 WNW 6 9 29.71 1006 10 16.0934 N/A
4:55 am 04:55 Partly Cloudy with Mist and Fog 73 22.5 71 21.5 94 94 WNW 6 9 29.71 1006 5 8.0467 N/A
5:15 am 05:15 Clear with Mist and Fog 73 22.5 71 21.5 94 94 WNW 5 7 29.71 1006 3 4.82802 N/A
5:35 am 05:35 Clear with Mist and Fog 71 21.7 69 20.7 94 94 NE 6 9 29.71 1006 2 3.21868 N/A
5:55 am 05:55 Clear with Mist and Fog 70 21.2 69 20.5 96 96 Calm 29.74 1007 2 3.21868 N/A
6:15 am 06:15 Mostly Cloudy with Mist and Fog 70 20.9 68 20.1 95 95 E 5 7 29.74 1007 1.5 2.41401 N/A
6:35 am 06:35 Mostly Cloudy with Mist and Fog 70 21 69 20.4 96 96 ESE 3 6 29.77 1008 1 1.60934 N/A
6:55 am 06:55 Sunny with Mist and Fog 70 21 69 20.5 97 97 S 5 7 29.77 1008 2 3.21868 0 0
7:15 am 07:15 Mostly Cloudy with Mist and Fog 70 21.1 69 20.5 96 96 Calm 29.74 1007 1.5 2.41401 N/A
7:35 am 07:35 Cloudy with Fog 71 21.6 70 21 96 96 SW 7 11 29.74 1007 0.25 0.402335 N/A
7:55 am 07:55 Cloudy with Fog 72 22.3 71 21.7 96 96 S 5 7 29.74 1007 0.25 0.402335 N/A
8:15 am 08:15 Partly Cloudy 71 21.9 70 20.9 94 94 WSW 6 9 29.74 1007 10 16.0934 N/A
8:35 am 08:35 Sunny 74 23.2 68 19.9 82 82 WSW 7 11 29.74 1007 10 16.0934 N/A
8:55 am 08:55 Sunny 75 23.7 68 19.8 79 79 WSW 6 9 29.74 1007 10 16.0934 N/A
9:15 am 09:15 Sunny 75 24.1 68 19.9 77 77 W 8 13 29.77 1008 10 16.0934 N/A
9:35 am 09:35 Sunny 76 24.5 68 20 76 76 WNW 8 13 29.77 1008 10 16.0934 N/A
9:55 am 09:55 Sunny 76 24.7 68 20.2 76 76 WNW 8 13 29.77 1008 10 16.0934 N/A
10:15 am 10:15 Sunny 77 25.1 68 20.1 74 74 WNW 10 17 29.77 1008 10 16.0934 N/A
10:35 am 10:35 Sunny 78 25.5 69 20.7 75 75 WNW 10 17 29.74 1007 10 16.0934 N/A
10:55 am 10:55 Sunny 79 26 69 20.6 72 72 WNW 10 17 29.74 1007 10 16.0934 N/A
11:15 am 11:15 Sunny 80 26.8 69 20.5 68 68 WNW 12 19 29.74 1007 10 16.0934 N/A
11:35 am 11:35 Sunny 81 27.1 66 18.9 61 61 WNW 15 24 29.74 1007 10 16.0934 N/A
11:55 am 11:55 Sunny 82 27.7 64 17.7 55 55 WNW 15 24 29.74 1007 10 16.0934 N/A
12:15 pm 12:15 Sunny 83 28.5 65 18.3 54 54 W 14 22 29.74 1007 10 16.0934 N/A
12:35 pm 12:35 Sunny 83 28.6 65 18.6 55 55 WNW 14 22 29.74 1007 10 16.0934 N/A
12:55 pm 12:55 Sunny 84 29 65 18.3 52 52 WNW 15 24 29.74 1007 10 16.0934 N/A
1:15 pm 13:15 Sunny 85 29.5 67 19.2 54 54 WNW 13 20 29.68 1005 10 16.0934 N/A
1:35 pm 13:35 Sunny 86 30 65 18.4 50 50 WNW 12 19 29.68 1005 10 16.0934 N/A
1:55 pm 13:55 Sunny 87 30.3 65 18.2 48 48 WNW 9 15 29.68 1005 10 16.0934 N/A
2:15 pm 14:15 Sunny 87 30.6 63 17.4 45 45 WNW 9 15 29.68 1005 10 16.0934 N/A
2:35 pm 14:35 Sunny 87 30.5 64 17.7 46 46 NW 6 9 29.68 1005 10 16.0934 N/A
2:55 pm 14:55 Sunny 89 31.5 65 18.1 45 45 WNW 9 15 29.68 1005 10 16.0934 N/A
3:15 pm 15:15 Sunny 90 32 58 14.3 34 34 WNW 12 19 29.68 1005 10 16.0934 N/A
3:35 pm 15:35 Sunny 89 31.7 59 15 36 36 WNW 10 17 29.68 1005 10 16.0934 N/A
3:55 pm 15:55 Sunny 89 31.7 61 16.3 40 40 W 9 15 29.68 1005 10 16.0934 N/A
4:15 pm 16:15 Sunny 90 32.2 59 15.1 36 36 W 9 15 29.65 1004 10 16.0934 N/A
4:35 pm 16:35 Sunny 89 31.8 60 15.6 38 38 WNW 7 11 29.65 1004 10 16.0934 N/A
4:55 pm 16:55 Sunny 89 31.7 61 16.1 39 39 NW 7 11 29.65 1004 10 16.0934 N/A
5:15 pm 17:15 Sunny 90 32 60 15.5 37 37 WNW 3 6 29.65 1004 10 16.0934 N/A
5:35 pm 17:35 Sunny 90 32.2 60 15.5 36 36 W 3 6 29.65 1004 10 16.0934 N/A
5:55 pm 17:55 Sunny 90 32.2 59 15.2 36 36 Calm 29.65 1004 10 16.0934 N/A
6:15 pm 18:15 Sunny 90 32 60 15.6 37 37 W 5 7 29.65 1004 10 16.0934 N/A
6:35 pm 18:35 Sunny 90 32 61 16 38 38 WNW 6 9 29.65 1004 10 16.0934 N/A
6:55 pm 18:55 Sunny 88 31.2 59 15.2 38 38 WNW 7 11 29.65 1004 10 16.0934 N/A
7:15 pm 19:15 Sunny 87 30.7 61 16.3 42 42 WNW 6 9 29.65 1004 10 16.0934 N/A
7:35 pm 19:35 Sunny 87 30.4 65 18.2 48 48 W 3 6 29.65 1004 10 16.0934 N/A
7:55 pm 19:55 Sunny 85 29.7 65 18.3 50 50 WSW 5 7 29.65 1004 10 16.0934 N/A
8:15 pm 20:15 Sunny 83 28.1 67 19.7 60 60 SW 6 9 29.68 1005 10 16.0934 N/A
8:35 pm 20:35 Sunny 80 26.8 68 20.2 67 67 SSW 6 9 29.68 1005 10 16.0934 N/A
8:55 pm 20:55 Sunny 80 26.6 68 20.1 68 68 SSW 3 6 29.68 1005 10 16.0934 N/A
9:15 pm 21:15 Clear 78 25.3 68 19.8 72 72 SSW 3 6 29.71 1006 10 16.0934 N/A
9:35 pm 21:35 Clear 76 24.3 67 19.4 74 74 Calm 29.71 1006 7 11.26538 N/A
9:55 pm 21:55 Clear 75 24 66 19.1 74 74 Calm 29.71 1006 10 16.0934 N/A
10:15 pm 22:15 Clear 73 22.9 66 19.1 79 79 S 3 6 29.71 1006 10 16.0934 N/A
10:35 pm 22:35 Clear 74 23.1 67 19.5 80 80 S 5 7 29.71 1006 7 11.26538 N/A
10:55 pm 22:55 Clear 72 22.2 67 19.2 83 83 Calm 29.71 1006 10 16.0934 N/A
11:15 pm 23:15 Clear 71 21.7 66 19.1 85 85 Calm 29.71 1006 10 16.0934 N/A
11:35 pm 23:35 Clear 70 21.3 66 18.7 85 85 Calm 29.77 1008 10 16.0934 N/A
11:55 pm 23:55 Clear 71 21.5 66 18.8 85 85 Calm 29.74 1007 10 16.0934 N/A

Powered by AerisWeather